Home   Weather   Bottrop   Past weeks

Flag for Germany Past Weather in Bottrop, North Rhine-Westphalia, Germany — Yesterday and Last 2 Weeks

Now
75 °F

Partly sunny.


Feels Like: 78 °F
Forecast: 57 / 74 °F
Wind: 2 mph from North

Location: Duesseldorf

Current Time: Aug 16, 2017 at 3:12:55 pm

Latest Report: Aug 16, 2017 at 2:50 pm


Visibility: N/A

Pressure: 30.15 "Hg

Humidity: 54%

Dew Point: 57 °F

Location of BottropLocation

Past Weather in Bottrop — Graph

°F

Bottrop Temperature Yesterday

Maximum temperature yesterday: 77 °F (at 1:54 pm)
Minimum temperature yesterday: 64 °F (at 5:20 am)
Average temperature yesterday: 70 °F

High & Low Weather Summary for the Past Weeks

 TemperatureHumidityPressure
High79 °F (Aug 14, 4:50 pm)100% (Aug 1, 11:50 pm)30.24 "Hg (Aug 1, 11:50 pm)
Low52 °F (Aug 6, 4:20 am)39% (Aug 7, 2:50 pm)29.74 "Hg (Aug 8, 1:50 pm)
Average64 °F78%30.01 "Hg
* Reported Aug 1 1:20 pm — Aug 16 1:50 pm, Bottrop. Weather by CustomWeather, © 2017

Note: Actual official high and low records may vary slightly from our data, if they occured in-between our weather recording intervals... More about our weather records

Advertising

Bottrop Weather History for the Previous 24 Hours

Scroll right to see more
 ConditionsComfort  
Time TempWeatherWind HumidityBarometerVisibility
1:50 pm
Wed, Aug 16
75 °FPartly sunny.6 mph57%30.15 "HgN/A
1:20 pm73 °FPartly sunny.3 mph61%30.15 "HgN/A
12:50 pm72 °FPartly sunny.3 mph65%30.15 "HgN/A
12:20 pm70 °FPartly sunny.3 mph73%30.15 "HgN/A
11:50 am70 °FPartly sunny.2 mph73%30.15 "HgN/A
11:20 am70 °FPartly sunny.3 mph73%30.18 "HgN/A
10:50 am68 °FPartly sunny.3 mph78%30.18 "Hg4 mi
10:20 am66 °FFog.6 mph83%30.18 "Hg3 mi
9:50 am66 °FFog.3 mph83%30.18 "Hg3 mi
9:20 am64 °FFog.3 mph88%30.15 "Hg2 mi
9:00 am63 °FFog.3 mph94%30.15 "Hg2 mi
8:50 am63 °FFog.3 mph94%30.15 "Hg2 mi
8:20 am63 °FFog.2 mph94%30.15 "Hg2 mi
7:50 am63 °FFog.2 mph94%30.15 "Hg2 mi
7:20 am61 °FFog.3 mph100%30.15 "Hg2 mi
6:50 am61 °FFog.3 mph100%30.15 "Hg2 mi
6:20 am59 °FFog.3 mph100%30.12 "Hg1 mi
5:53 am59 °FCool.3 mph94%30.12 "Hg1 mi
5:30 am59 °FPassing clouds.3 mph100%30.12 "Hg2 mi
5:20 am59 °FFog.2 mph100%30.12 "Hg1 mi
4:50 am61 °FPassing clouds.3 mph100%30.12 "HgN/A
4:20 am63 °FPassing clouds.5 mph94%30.09 "HgN/A
3:20 am64 °FPartly cloudy.6 mph88%30.09 "HgN/A
2:50 am64 °FPartly cloudy.6 mph94%30.09 "HgN/A
2:20 am64 °FPartly cloudy.7 mph94%30.09 "HgN/A
1:50 am66 °FPassing clouds.7 mph88%30.09 "HgN/A
1:20 am66 °FPassing clouds.7 mph88%30.07 "HgN/A
12:50 am66 °FPassing clouds.6 mph88%30.07 "HgN/A
12:20 am66 °FPassing clouds.6 mph88%30.07 "HgN/A
11:50 pm
Tue, Aug 15
68 °FPassing clouds.6 mph83%30.07 "HgN/A
11:20 pm68 °FClear.7 mph83%30.04 "Hg10 mi
10:50 pm70 °FClear.10 mph83%30.04 "Hg10 mi
10:20 pm70 °FPartly cloudy.9 mph83%30.04 "HgN/A
9:50 pm72 °FPartly cloudy.9 mph78%30.04 "HgN/A
9:20 pm72 °FPartly cloudy.9 mph78%30.01 "HgN/A
8:50 pm70 °FPartly sunny.7 mph83%30.01 "HgN/A
8:20 pm72 °FPartly sunny.10 mph78%29.98 "HgN/A
7:50 pm73 °FPartly sunny.12 mph74%29.98 "HgN/A
7:20 pm73 °FPartly sunny.10 mph74%29.98 "HgN/A
6:50 pm73 °FBroken clouds.10 mph74%29.95 "HgN/A
6:20 pm73 °FPartly sunny.9 mph74%29.98 "HgN/A
5:50 pm72 °FLight rain. Partly sunny.14 mph78%29.98 "HgN/A
5:20 pm75 °FPartly sunny.8 mph65%29.95 "HgN/A
4:50 pm73 °FPartly sunny.10 mph74%29.98 "HgN/A
4:20 pm73 °FBroken clouds.13 mph69%29.98 "HgN/A
3:50 pm75 °FBroken clouds.13 mph65%29.95 "HgN/A
3:20 pm73 °FLight rain. Broken clouds.16 mph65%29.95 "HgN/A
Weather by CustomWeather, © 2017

See weather overviewHow to use our weather pages